Retour au catalogue

STARLINK-37232

ActifCommunicationsVLEO
NORAD 69515·PAYLOAD·🇺🇸 United States

Lancé Jun 12, 2026 depuis Cape Canaveral Space Force Station

Loading…

Prochains Passages (prochaines 24 heures)

TLE

FraisSource: CelesTrak SupGP

Époque: Sep 14, 2026, 22:35 UTC

1 69515C 26133H   26257.94145833  .00038751  00000+0  11449-2 0  2571
2 69515  53.1562 255.8120 0001492  93.9301 107.1248 15.34371815    16

Suivez STARLINK-37232 en temps réel avec AllMySat

Download on the App Store